CDT,Max TemperatureF,Mean TemperatureF,Min TemperatureF,Max Dew PointF,MeanDew PointF,Min DewpointF,Max Humidity, Mean Humidity, Min Humidity, Max Sea Level PressureIn, Mean Sea Level PressureIn, Min Sea Level PressureIn, Max VisibilityMiles, Mean VisibilityMiles, Min VisibilityMiles, Max Wind SpeedMPH, Mean Wind SpeedMPH, Max Gust SpeedMPH,PrecipitationIn, CloudCover, Events, WindDirDegrees
2012-9-1,98,78,58,44,39,34,51,31,11,29.99,29.92,29.85,10,10,10,18,7,25,0.00,0,,177
2012-9-2,102,83,64,52,46,42,52,33,14,29.87,29.81,29.74,10,10,10,26,12,36,0.00,0,,201
2012-9-3,102,84,65,58,51,48,63,40,17,29.94,29.82,29.75,10,10,10,28,9,32,T,0,,198
2012-9-4,99,85,70,64,57,53,68,45,22,29.98,29.84,29.74,10,10,8,22,7,25,T,4,Rain-Thunderstorm,88
2012-9-5,91,77,63,63,58,48,87,58,29,30.03,29.91,29.78,10,10,10,20,8,25,T,2,Rain-Thunderstorm,355
2012-9-6,99,80,60,63,60,57,93,60,26,30.06,29.88,29.71,10,10,9,32,13,44,T,1,Rain-Thunderstorm,206
2012-9-7,78,68,57,63,54,45,87,63,38,30.19,29.95,29.73,10,10,10,37,15,44,0.00,2,,10
2012-9-8,83,67,50,50,42,35,83,51,18,30.28,30.18,30.09,10,10,10,15,5,22,0.00,0,,341
2012-9-9,89,71,53,46,39,33,66,40,14,30.14,30.08,30.01,10,10,9,13,5,16,0.00,0,,220
2012-9-10,92,73,53,48,43,38,59,40,21,30.02,29.92,29.81,10,10,9,26,15,33,0.00,0,,194
2012-9-11,101,84,67,46,43,40,37,26,14,29.83,29.73,29.63,10,10,10,31,21,39,0.00,0,,184
2012-9-12,83,69,54,52,44,37,83,53,23,30.28,29.92,29.71,10,10,10,31,16,39,0.07,2,Rain-Thunderstorm,333
2012-9-13,65,57,48,52,50,45,93,73,52,30.43,30.32,30.19,10,10,7,26,16,32,0.44,6,Rain,16
2012-9-14,73,59,44,44,37,29,89,55,20,30.41,30.34,30.26,10,10,10,21,9,25,0.00,0,,13
2012-9-15,80,62,43,45,39,30,83,53,22,30.25,30.14,30.03,10,10,10,9,3,13,0.00,0,,162
2012-9-16,84,64,43,47,40,33,89,53,16,30.04,29.94,29.85,10,10,10,12,5,15,0.00,0,,177
2012-9-17,79,63,46,49,44,40,93,62,30,30.10,29.92,29.81,10,10,10,30,15,36,0.00,0,,8
2012-9-18,82,63,44,45,42,37,89,56,23,30.15,30.05,29.93,10,10,10,21,10,28,0.00,0,,229
2012-9-19,94,72,50,45,41,31,71,41,11,29.97,29.92,29.85,10,10,10,18,6,25,0.00,0,,208
2012-9-20,87,69,50,50,44,38,59,42,25,29.99,29.92,29.85,10,10,10,15,7,20,0.00,0,,58
2012-9-21,89,72,54,53,43,33,77,46,14,29.96,29.92,29.88,10,10,10,15,5,21,0.00,0,,21
2012-9-22,85,69,52,42,40,38,66,45,23,30.11,30.05,29.96,10,10,10,15,10,20,0.00,0,,57
2012-9-23,86,67,47,45,38,33,60,41,21,30.17,30.07,29.94,10,10,10,17,6,25,0.00,0,,100
2012-9-24,94,74,54,51,44,35,66,40,13,29.98,29.84,29.71,10,10,4,40,10,51,0.03,1,Rain-Thunderstorm,209
2012-9-25,89,73,56,50,45,40,77,48,18,29.83,29.72,29.66,10,10,10,30,6,36,0.01,1,,300
2012-9-26,84,70,55,59,53,51,97,66,34,30.15,29.95,29.78,10,9,2,30,11,37,0.39,2,Rain-Thunderstorm,17
2012-9-27,78,69,59,59,57,56,90,69,47,30.19,30.08,29.96,10,10,4,24,9,30,0.37,5,Rain-Thunderstorm,123
2012-9-28,74,65,56,61,57,54,93,77,61,30.17,30.08,29.99,10,10,5,16,5,22,0.25,5,Rain-Thunderstorm,23
2012-9-29,73,65,57,61,58,54,97,75,53,30.16,30.05,29.96,10,8,3,12,3,15,0.00,4,,93
2012-9-30,80,67,53,59,55,50,100,70,39,30.10,29.97,29.83,10,8,4,25,4,35,T,3,Thunderstorm,220